#
# The Tor Project
#
# URL: https://metrics.torproject.org/networksize.csv?start=2019-05-26&end=2019-08-24
#
date,relays,bridges
2019-05-26,6544,1048
2019-05-27,6546,1040
2019-05-28,6531,1042
2019-05-29,6524,1035
2019-05-30,6518,1045
2019-05-31,6516,1033
2019-06-01,6596,1045
2019-06-02,6598,1041
2019-06-03,6616,1037
2019-06-04,6602,1031
2019-06-05,6595,1025
2019-06-06,6586,1031
2019-06-07,6590,1033
2019-06-08,6591,1029
2019-06-09,6602,1035
2019-06-10,6600,1037
2019-06-11,6566,1033
2019-06-12,6541,1027
2019-06-13,6534,1031
2019-06-14,6524,1020
2019-06-15,6535,1026
2019-06-16,6535,1030
2019-06-17,6529,1033
2019-06-18,6485,1025
2019-06-19,6470,1024
2019-06-20,6477,1017
2019-06-21,6469,1010
2019-06-22,6460,1022
2019-06-23,6462,1024
2019-06-24,6448,1025
2019-06-25,6418,1019
2019-06-26,6363,1022
2019-06-27,6375,1024
2019-06-28,6364,1014
2019-06-29,6361,1014
2019-06-30,6378,1021
2019-07-01,6463,1027
2019-07-02,6436,1042
2019-07-03,6453,1039
2019-07-04,6453,1041
2019-07-05,6449,1040
2019-07-06,6536,1042
2019-07-07,6553,1035
2019-07-08,6535,1050
2019-07-09,6533,1048
2019-07-10,6525,1042
2019-07-11,6543,1042
2019-07-12,6545,1044
2019-07-13,6557,1041
2019-07-14,6562,1040
2019-07-15,6527,1040
2019-07-16,6493,1041
2019-07-17,6427,1054
2019-07-18,6415,1055
2019-07-19,6415,1063
2019-07-20,6412,1056
2019-07-21,6462,1061
2019-07-22,6433,1065
2019-07-23,6442,1068
2019-07-24,6464,1058
2019-07-25,6464,1051
2019-07-26,6432,1051
2019-07-27,6441,1055
2019-07-28,6446,1055
2019-07-29,6433,1054
2019-07-30,6429,1059
2019-07-31,6437,1054
2019-08-01,6515,1062
2019-08-02,6517,1051
2019-08-03,6521,1066
2019-08-04,6515,1068
2019-08-05,6528,1070
2019-08-06,6533,1068
2019-08-07,6531,1069
2019-08-08,6521,1068
2019-08-09,6513,1068
2019-08-10,6516,1083
2019-08-11,6523,1079
2019-08-12,6532,1077
2019-08-13,6566,1073
2019-08-14,6543,1072
2019-08-15,6538,1072
2019-08-16,6526,1081
2019-08-17,6514,1081
2019-08-18,6516,1082
2019-08-19,6540,1079
2019-08-20,6549,1074
2019-08-21,6584,1072
2019-08-22,6567,1077
2019-08-23,6549,1078
2019-08-24,6525,1079
